TimeCDT,TemperatureF,Dew PointF,Humidity,Sea Level PressureIn,VisibilityMPH,Wind Direction,Wind SpeedMPH,Gust SpeedMPH,PrecipitationIn,Events,Conditions,WindDirDegrees,DateUTC
12:15 AM,57.0,49.5,76,29.88,10.0,South,9.2,-,N/A,,Clear,180,2013-05-17 05:15:00
12:35 AM,55.4,48.9,79,29.89,10.0,SE,6.9,-,N/A,,Clear,140,2013-05-17 05:35:00
12:55 AM,55.4,48.2,77,29.89,10.0,South,9.2,-,N/A,,Clear,180,2013-05-17 05:55:00
1:15 AM,55.4,47.7,75,29.89,10.0,South,10.4,-,N/A,,Scattered Clouds,190,2013-05-17 06:15:00
1:35 AM,54.7,47.5,77,29.89,10.0,South,6.9,-,N/A,,Clear,180,2013-05-17 06:35:00
1:55 AM,54.0,47.3,78,29.89,10.0,South,5.8,-,N/A,,Clear,180,2013-05-17 06:55:00
2:15 AM,53.6,47.3,79,29.89,10.0,South,5.8,-,N/A,,Clear,170,2013-05-17 07:15:00
2:35 AM,54.0,47.5,79,29.87,10.0,South,4.6,-,N/A,,Clear,180,2013-05-17 07:35:00
2:55 AM,55.4,48.2,77,29.87,10.0,South,6.9,-,N/A,,Clear,180,2013-05-17 07:55:00
3:15 AM,55.8,48.6,77,29.87,10.0,South,11.5,-,N/A,,Clear,180,2013-05-17 08:15:00
3:35 AM,55.4,48.9,79,29.87,10.0,South,9.2,-,N/A,,Clear,180,2013-05-17 08:35:00
3:55 AM,55.2,49.1,80,29.88,10.0,South,9.2,-,N/A,,Clear,190,2013-05-17 08:55:00
4:15 AM,55.4,49.1,79,29.87,10.0,South,8.1,-,N/A,,Clear,190,2013-05-17 09:15:00
4:35 AM,55.4,48.9,79,29.87,10.0,SW,9.2,-,N/A,,Clear,220,2013-05-17 09:35:00
4:55 AM,56.3,49.1,77,29.87,10.0,SSW,10.4,-,N/A,,Clear,200,2013-05-17 09:55:00
5:15 AM,55.6,49.1,79,29.88,10.0,SSW,9.2,-,N/A,,Clear,210,2013-05-17 10:15:00
5:35 AM,54.7,48.7,80,29.88,10.0,SSW,9.2,-,N/A,,Clear,210,2013-05-17 10:35:00
5:55 AM,54.5,49.1,82,29.88,10.0,SSW,8.1,-,N/A,,Clear,200,2013-05-17 10:55:00
6:15 AM,55.4,49.6,81,29.87,10.0,South,9.2,-,N/A,,Clear,190,2013-05-17 11:15:00
6:35 AM,54.9,50.2,84,29.87,10.0,SSW,8.1,-,N/A,,Clear,200,2013-05-17 11:35:00
7:15 AM,54.5,50.4,86,29.89,10.0,South,5.8,-,N/A,,Clear,170,2013-05-17 12:15:00
7:35 AM,55.6,51.1,85,29.89,10.0,SSW,5.8,-,N/A,,Clear,200,2013-05-17 12:35:00
7:55 AM,57.7,52.5,83,29.89,10.0,South,4.6,-,N/A,,Clear,190,2013-05-17 12:55:00
8:15 AM,59.9,53.2,79,29.89,10.0,South,11.5,-,N/A,,Clear,180,2013-05-17 13:15:00
8:35 AM,61.2,53.8,77,29.89,10.0,South,10.4,-,N/A,,Clear,190,2013-05-17 13:35:00
8:55 AM,62.2,53.4,73,29.89,10.0,SSW,11.5,-,N/A,,Clear,210,2013-05-17 13:55:00
9:15 AM,63.5,54.1,72,29.89,10.0,SSW,10.4,-,N/A,,Clear,210,2013-05-17 14:15:00
9:35 AM,64.9,54.3,68,29.89,10.0,SSW,9.2,-,N/A,,Clear,210,2013-05-17 14:35:00
9:55 AM,66.4,54.7,66,29.89,10.0,SSW,10.4,-,N/A,,Clear,210,2013-05-17 14:55:00
10:15 AM,68.5,54.5,61,29.88,10.0,SSW,10.4,-,N/A,,Clear,210,2013-05-17 15:15:00
10:35 AM,70.0,53.8,56,29.88,10.0,SSW,10.4,-,N/A,,Clear,210,2013-05-17 15:35:00
10:55 AM,71.6,54.3,54,29.88,10.0,South,10.4,-,N/A,,Clear,190,2013-05-17 15:55:00
11:15 AM,73.0,54.3,52,29.88,10.0,SSW,6.9,-,N/A,,Clear,210,2013-05-17 16:15:00
11:35 AM,76.1,53.2,45,29.88,10.0,South,12.7,17.3,N/A,,Clear,180,2013-05-17 16:35:00
11:55 AM,78.3,49.8,37,29.87,10.0,South,16.1,19.6,N/A,,Clear,190,2013-05-17 16:55:00
12:15 PM,79.7,50.0,35,29.87,10.0,South,16.1,21.9,N/A,,Clear,170,2013-05-17 17:15:00
12:35 PM,80.6,48.0,32,29.87,10.0,South,19.6,-,N/A,,Clear,170,2013-05-17 17:35:00
12:55 PM,80.8,48.6,32,29.86,10.0,South,17.3,25.3,N/A,,Clear,180,2013-05-17 17:55:00
1:15 PM,81.3,49.5,33,29.86,10.0,South,17.3,23.0,N/A,,Clear,170,2013-05-17 18:15:00
1:35 PM,82.0,48.7,31,29.85,10.0,South,18.4,25.3,N/A,,Clear,190,2013-05-17 18:35:00
2:15 PM,83.7,47.1,28,29.84,10.0,South,17.3,23.0,N/A,,Clear,170,2013-05-17 19:15:00
2:35 PM,83.7,44.4,25,29.84,10.0,South,10.4,21.9,N/A,,Clear,170,2013-05-17 19:35:00
2:55 PM,84.4,44.2,24,29.83,10.0,South,12.7,23.0,N/A,,Clear,170,2013-05-17 19:55:00
3:15 PM,85.1,38.5,19,29.82,10.0,SSE,10.4,19.6,N/A,,Clear,160,2013-05-17 20:15:00
3:35 PM,85.3,39.0,19,29.81,10.0,South,11.5,17.3,N/A,,Scattered Clouds,180,2013-05-17 20:35:00
3:55 PM,85.6,36.1,17,29.80,10.0,South,15.0,19.6,N/A,,Scattered Clouds,170,2013-05-17 20:55:00
4:15 PM,86.4,34.5,16,29.80,10.0,South,13.8,19.6,N/A,,Scattered Clouds,190,2013-05-17 21:15:00
4:35 PM,86.9,30.0,13,29.79,10.0,SSW,13.8,21.9,N/A,,Clear,200,2013-05-17 21:35:00
4:55 PM,86.4,27.3,12,29.78,10.0,SSW,12.7,19.6,N/A,,Clear,200,2013-05-17 21:55:00
5:15 PM,86.9,26.4,11,29.77,10.0,SSW,17.3,28.8,N/A,,Clear,200,2013-05-17 22:15:00
5:35 PM,86.7,25.5,11,29.77,10.0,South,11.5,25.3,N/A,,Clear,170,2013-05-17 22:35:00
5:55 PM,86.9,25.2,11,29.77,10.0,SW,19.6,23.0,N/A,,Clear,220,2013-05-17 22:55:00
6:15 PM,86.5,25.3,11,29.76,10.0,SSW,16.1,-,N/A,,Clear,210,2013-05-17 23:15:00
6:35 PM,86.2,24.6,11,29.76,10.0,SW,16.1,24.2,N/A,,Clear,220,2013-05-17 23:35:00
6:55 PM,85.1,29.5,13,29.75,10.0,SSW,15.0,19.6,N/A,,Clear,200,2013-05-17 23:55:00
7:15 PM,83.8,29.8,14,29.75,10.0,SSW,9.2,-,N/A,,Clear,200,2013-05-18 00:15:00
7:35 PM,81.9,29.8,15,29.75,10.0,SSW,10.4,-,N/A,,Clear,200,2013-05-18 00:35:00
7:55 PM,77.2,35.8,22,29.75,10.0,South,6.9,-,N/A,,Clear,190,2013-05-18 00:55:00
8:15 PM,75.4,42.1,30,29.75,10.0,South,5.8,-,N/A,,Clear,170,2013-05-18 01:15:00
8:35 PM,74.1,42.8,32,29.75,10.0,South,6.9,-,N/A,,Clear,190,2013-05-18 01:35:00
8:55 PM,71.4,44.1,37,29.76,10.0,South,5.8,-,N/A,,Clear,170,2013-05-18 01:55:00
9:15 PM,68.7,43.9,41,29.77,10.0,SSE,6.9,-,N/A,,Clear,160,2013-05-18 02:15:00
9:35 PM,65.7,44.8,47,29.77,10.0,South,5.8,-,N/A,,Clear,170,2013-05-18 02:35:00
9:55 PM,65.7,43.9,45,29.78,10.0,SE,3.5,-,N/A,,Clear,130,2013-05-18 02:55:00
10:15 PM,65.7,45.0,47,29.79,10.0,SE,9.2,-,N/A,,Clear,140,2013-05-18 03:15:00
10:35 PM,66.0,47.1,50,29.79,10.0,SE,9.2,-,N/A,,Clear,130,2013-05-18 03:35:00
10:55 PM,69.6,54.7,59,29.80,10.0,SE,16.1,-,N/A,,Clear,140,2013-05-18 03:55:00
11:15 PM,70.0,55.4,60,29.80,10.0,SE,16.1,-,N/A,,Clear,140,2013-05-18 04:15:00
11:35 PM,69.4,55.9,62,29.79,10.0,SSE,21.9,25.3,N/A,,Clear,150,2013-05-18 04:35:00
11:55 PM,68.9,56.5,65,29.79,10.0,SE,18.4,26.5,N/A,,Clear,140,2013-05-18 04:55:00